Regional Weather Roundup
Issued by NWS

Home | Current Version | Previous Version | Text Only | Print | Product List | Glossary Off
Versions: 1 2 3 4 5 6 7 8 9 10 11 12 13 14 15 16 17 18 19 20 21 22 23 24 25 26 27 28 29 30 31 32 33 34 35 36 37 38 39 40 41 42 43 44 45 46 47 48 49 50

000
ASUS43 KLMK 271102
RWRKY
KENTUCKY REGIONAL WEATHER ROUNDUP
NATIONAL WEATHER SERVICE LOUISVILLE KY
700 AM EDT SUN MAY 27 2018

NOTE "FAIR" INDICATES FEW OR NO CLOUDS BELOW 12,000 FEET
WITH NO SIGNIFICANT WEATHER AND/OR OBSTRUCTIONS TO VISIBILITY.

KYZ001>023-026-027-061>063-070>075-271200-
WESTERN AND SOUTH CENTRAL KENTUCKY

CITY           SKY/WX    TMP DP  RH WIND       PRES   REMARKS
PADUCAH        FAIR      72  69  90 CALM      29.88R
HENDERSON      FAIR      70  69  97 SW3       29.89R
OWENSBORO      FAIR      71  69  93 SE6       29.90R
HOPKINSVILLE   FAIR      70  70 100 S3        29.91R
BOWLING GREEN  FAIR      67  67 100 CALM      29.93R
GLASGOW        NOT AVBL
$$

KYZ024-025-028>034-038-045-046-053-271200-
NORTH CENTRAL KENTUCKY

CITY           SKY/WX    TMP DP  RH WIND       PRES   REMARKS
LOUISVILLE/SDF LGT RAIN  70  65  84 W3        29.91R
LOUISVILLE/LOU FAIR      71  68  90 CALM      29.91R
FORT KNOX      HVY RAIN  67  66  95 N21       29.94R FOG
$$

KYZ035>037-039>044-047>052-055>060-089>105-271200-
NORTHEAST KENTUCKY

CITY           SKY/WX    TMP DP  RH WIND       PRES   REMARKS
LEXINGTON      FAIR      70  67  90 S6        29.94R
COVINGTON      CLOUDY    68  66  93 S5        29.90R
FRANKFORT      FAIR      69  66  90 S3        29.92R FOG
$$

KYZ054-064>069-076>088-106>120-271200-
SOUTHEAST KENTUCKY

CITY           SKY/WX    TMP DP  RH WIND       PRES   REMARKS
JACKSON        FAIR      68  65  90 CALM      29.97R
LONDON         CLOUDY    67  67 100 CALM      29.97R FOG
SOMERSET       NOT AVBL
MIDDLESBORO    CLOUDY    68  68 100 CALM      30.00R
MONTICELLO     CLOUDY    68  67  96 NE8       29.97S
$$




USA.gov is the U.S. government's official web portal to all federal, state and local government web resources and services.